Location: Schommer Observatory
(40.5200°N, 74.4500°W)
Time: 11:59:46
(UTC-04:00)

Vanguard 2 Rocket - Visible Passes

Search period start: 24 September 2018 00:00
Search period end: 04 October 2018 00:00
Orbit: 553 x 3327 km, 32.9° (Epoch: 23 September)

Date Brightness Start Highest point End Pass type
(mag) Time Alt. Az. Time Alt. Az. Time Alt. Az.
24 Sep 9.1 05:44:43 10° S 05:48:12 16° SE 05:52:41 10° ESE visible
26 Sep 8.8 05:57:26 10° SSW 06:01:44 23° SE 06:07:53 10° E visible
27 Sep 8.9 05:00:44 10° SSE 05:02:55 12° SE 05:05:26 10° ESE visible
28 Sep 8.5 06:10:54 10° SW 06:15:30 31° SSE 06:22:28 10° E visible
29 Sep 8.5 05:13:29 11° S 05:16:33 19° SSE 05:21:00 10° ESE visible
30 Sep 8.9 04:17:34 10° SE 04:17:44 10° SE 04:17:54 10° SE visible
30 Sep 8.1 06:24:46 10° SW 06:29:27 37° SSE 06:36:49 10° E visible
01 Oct 8.1 05:27:28 15° SSW 05:30:24 26° SSE 05:35:42 10° E visible
02 Oct 8.3 04:31:31 16° SSE 04:31:31 16° SSE 04:34:42 10° ESE visible
03 Oct 7.7 05:41:22 16° SW 05:44:25 33° SSE 05:50:06 10° ESE visible
